Location: ?????????
(41.2286°N, 23.0068°E)
Time: 09:44:58
(UTC+00:00)

NOAA 12 - Pass Details

Date: 08 November 2025
Orbit: 794 x 812 km, 98.6° (Epoch: 05 December)

Event Time Altitude Azimuth Distance (km) Brightness Sun altitude
Rises 03:58:54 0° 9° (N) 3,342 7.3 -13.2°
Reaches altitude 10° 04:01:17 10° 5° (N) 2,408 6.5 -12.8°
Maximum altitude 04:06:30 58° 288° (WNW) 946 4.1 -11.8°
Drops below altitude 10° 04:11:40 10° 210° (SSW) 2,391 6.4 -10.9°
Sets 04:14:02 0° 207° (SSW) 3,317 7.2 -10.5°
